EHI
12 12 12 14 15 13 13 12 9 8 9 10 9 7 7 6 4 4 10 19 24 25 26 26 24 20 15 11 9 8 6 5 5 4 4 3 3 1 0 0 0 0 0
13 13 14 15 15 15 14 12 10 9 9 8 8 9 10 9 8 7 10 16 22 24 24 24 25 22 17 12 11 9 7 5 5 5 5 4 3 2 1 0 0 0 0
14 15 15 14 15 16 15 12 11 10 7 5 6 8 10 11 12 13 13 14 17 20 22 23 24 23 18 14 12 11 8 5 4 6 8 7 5 3 1 0 0 0 0
18 17 15 14 14 15 14 12 11 10 8 6 5 6 9 11 13 14 12 12 15 17 20 22 22 21 19 16 14 11 9 6 5 7 9 9 6 3 2 1 0 0 0
19 17 15 14 14 14 13 12 12 13 13 9 6 6 9 11 11 11 10 10 14 17 19 21 20 19 20 19 16 13 10 8 7 7 8 8 6 4 3 2 1 0 0
20 17 15 16 17 15 13 13 14 16 17 14 9 7 8 10 9 9 8 8 11 15 17 19 20 19 21 20 16 12 10 8 7 7 7 7 7 5 4 3 2 1 1
19 17 16 18 19 17 16 16 17 16 15 15 12 8 7 7 7 6 6 8 10 12 13 16 19 21 21 19 14 11 10 9 7 6 6 6 6 5 4 4 3 3 2
19 18 18 18 18 17 17 19 19 16 14 16 16 13 9 7 6 4 3 5 8 10 10 12 18 22 21 17 14 12 11 10 8 6 5 5 5 4 4 4 3 3 3
19 19 19 19 17 16 16 18 19 17 16 17 19 17 13 11 8 5 2 2 5 7 7 9 14 20 20 18 15 13 12 11 9 7 6 6 5 4 3 3 2 2 2
19 20 20 20 18 15 13 14 15 17 18 19 19 18 15 14 12 8 4 3 4 5 6 7 11 16 19 19 17 14 13 12 11 9 7 7 6 3 1 1 1 1 1
19 20 21 20 18 16 12 12 14 16 17 17 18 17 16 17 14 10 7 6 6 7 9 10 11 14 18 22 20 15 11 10 10 8 7 6 5 2 0 0 1 0 0
22 21 22 22 20 16 12 12 15 16 15 15 16 16 16 17 14 11 8 7 8 10 12 13 12 14 18 22 20 14 10 7 6 5 5 5 3 1 0 0 0 0 0
23 23 24 25 25 21 16 14 15 16 16 15 14 14 15 15 13 11 8 6 6 9 11 12 13 14 18 20 18 13 9 6 3 2 3 3 1 0 0 0 0 0 0
23 25 27 29 30 28 22 18 16 16 17 16 13 12 13 12 11 10 8 6 4 5 7 9 12 15 17 17 14 11 10 7 3 1 2 1 0 0 0 0 0 0 0
24 27 30 30 30 30 25 20 21 21 20 18 15 14 14 12 11 11 11 10 7 5 5 7 10 14 16 14 10 9 10 7 3 1 0 0 0 0 0 0 0 0 0
26 28 30 29 28 27 23 21 22 23 21 18 18 17 18 16 13 13 16 16 13 9 6 6 9 12 13 10 8 9 9 9 5 2 0 0 0 0 0 0 0 0 0
25 26 29 29 26 24 23 22 21 20 19 18 19 20 20 20 19 18 19 18 17 13 9 8 10 12 13 11 10 10 8 9 8 4 0 0 0 0 0 0 0 0 0
23 26 29 28 25 22 23 24 22 19 19 20 21 21 20 19 21 21 18 16 15 12 10 9 11 13 14 13 13 11 7 6 7 4 1 0 0 0 0 0 0 0 0
21 24 26 25 23 22 23 25 24 22 21 21 22 21 20 19 19 19 17 15 12 10 9 10 11 13 13 13 13 11 8 6 5 4 1 0 0 0 0 0 0 0 0
20 22 24 23 23 23 24 25 24 22 23 22 21 21 21 19 18 17 16 15 14 12 11 10 11 11 12 13 13 11 10 8 6 4 2 1 1 0 0 0 0 0 0
21 23 24 24 24 23 22 22 21 21 21 21 19 20 19 18 16 14 13 12 13 13 11 9 9 10 12 14 14 13 11 9 7 4 3 3 2 1 0 0 0 0 0
25 25 25 26 24 19 16 15 16 18 18 17 17 16 15 12 11 10 7 6 7 8 8 7 8 9 11 13 15 14 11 7 5 4 3 3 2 1 0 0 0 0 0
29 28 27 27 22 15 10 9 12 15 16 15 14 11 10 9 10 9 7 4 4 4 4 5 7 8 9 11 14 14 11 7 6 6 3 2 1 1 0 0 0 0 0
31 30 29 27 21 13 7 6 8 12 16 15 12 8 8 10 11 11 11 10 9 6 2 2 4 5 5 7 10 12 10 8 7 6 3 1 0 0 0 0 0 0 0
28 28 28 26 20 12 6 3 4 10 15 15 12 8 7 9 9 8 10 12 13 10 4 1 1 2 2 2 4 7 8 6 6 5 3 1 0 0 0 0 0 0 0
26 25 26 25 20 12 5 1 3 9 14 15 12 8 6 6 4 4 7 11 13 12 7 2 0 0 0 0 1 4 5 4 4 4 3 1 0 0 0 0 0 0 0
Wind_Speed
1 1 1 0 1 0 1 1 2 2 2 3 3 3 2 2 2 3 3 10 11 10 10 10 10 10 9 9 9 9 8 8 8 7 7 7 7 8 7 7 7 8 8
1 1 1 1 1 1 0 0 2 2 1 2 2 2 2 2 2 3 4 7 10 10 10 10 10 10 9 9 9 9 9 8 7 7 7 7 7 7 8 8 8 8 8
2 0 0 0 1 0 1 1 1 1 1 1 1 2 1 1 1 2 4 4 5 8 10 10 9 9 9 9 9 9 9 8 8 7 7 7 7 7 7 7 7 8 8
1 0 0 0 1 1 0 0 0 1 1 1 1 2 1 1 2 2 3 4 4 4 7 11 10 9 10 10 10 10 9 8 8 8 8 7 7 8 8 8 8 8 8
1 0 0 0 1 0 1 1 1 1 1 1 2 2 1 1 1 2 2 3 3 4 4 8 10 10 10 9 9 9 9 8 8 9 8 8 8 7 8 9 8 8 8
1 1 1 1 0 1 1 1 1 1 1 1 3 1 1 1 1 1 2 2 3 4 4 5 5 7 10 9 8 8 8 8 7 8 9 9 9 8 8 8 9 9 9
0 0 1 1 0 1 0 1 1 2 2 1 1 1 1 2 2 1 1 1 2 2 4 4 4 3 4 9 8 7 7 7 6 7 7 7 8 8 9 9 9 10 10
0 0 1 1 1 0 0 0 1 1 2 0 0 1 1 1 1 2 2 3 2 1 2 4 4 3 3 3 5 8 7 6 6 6 6 6 7 7 7 8 9 9 10
1 0 1 0 1 1 0 1 1 1 2 1 0 0 0 0 1 1 2 1 1 2 2 2 4 4 4 3 3 5 6 6 6 6 5 5 5 6 7 8 8 9 9
1 1 1 0 1 1 1 2 0 1 1 2 1 0 1 1 1 1 1 1 2 2 2 2 3 3 3 3 4 5 6 5 5 5 5 5 4 5 6 6 8 9 9
2 1 1 0 1 1 1 1 1 1 1 2 2 1 1 1 2 2 2 2 1 1 2 2 2 2 3 3 3 5 6 5 5 4 4 4 5 6 6 6 7 8 8
1 1 0 1 1 1 1 2 2 2 1 2 2 2 1 1 2 1 2 2 2 2 2 2 2 2 2 3 4 6 7 7 6 6 5 4 5 6 6 7 7 7 7
1 0 1 1 1 2 3 2 2 2 2 3 3 2 2 2 1 1 2 2 2 2 2 2 2 2 2 2 4 7 7 7 7 7 6 5 5 6 6 7 7 7 7
0 0 0 0 1 1 3 2 2 2 2 3 4 3 3 2 2 2 1 2 2 2 2 2 1 1 1 1 3 6 4 7 8 8 7 7 6 6 6 6 6 6 6
1 1 0 0 1 1 2 2 2 2 1 3 3 3 2 2 2 2 1 1 2 3 3 2 1 1 1 1 4 3 2 6 8 9 9 8 8 7 7 7 6 5 6
1 1 1 1 1 1 2 2 2 1 2 3 3 2 2 2 2 2 2 2 2 2 3 1 1 1 1 2 4 3 2 5 8 9 10 9 9 8 7 7 7 6 6
0 1 2 2 2 2 2 2 3 2 3 3 3 2 2 2 2 3 2 2 2 2 3 3 1 1 2 2 2 2 3 4 4 9 10 10 10 9 8 8 7 7 6
1 1 2 2 3 2 2 2 3 3 3 3 3 2 3 2 2 2 3 3 2 2 2 3 3 2 3 3 3 3 4 4 3 6 9 10 10 10 9 8 8 7 7
2 2 2 3 3 2 3 3 3 3 3 3 2 2 3 2 3 3 3 3 2 3 2 3 3 2 2 2 2 3 4 3 4 4 7 8 9 10 10 9 8 7 7
3 2 2 3 3 3 3 3 3 4 3 3 3 3 3 3 3 4 3 2 2 3 3 3 3 2 2 2 1 2 3 2 3 4 3 5 7 9 10 9 9 9 8
2 1 2 3 4 3 2 2 3 4 3 3 3 3 3 3 3 3 3 2 2 2 3 3 3 2 2 2 2 2 3 2 3 3 2 3 3 4 5 7 8 9 9
2 2 2 3 3 4 3 2 3 3 3 3 3 3 4 3 2 2 3 3 3 3 3 3 3 3 3 2 2 3 3 3 3 2 2 4 3 3 4 4 7 10 10
2 2 3 3 2 2 2 2 3 3 3 3 3 3 4 3 2 2 3 4 4 6 6 4 4 4 4 3 3 4 3 4 5 4 3 4 2 2 3 3 7 10 10
2 3 3 3 2 2 1 2 4 3 3 3 3 3 3 2 3 3 4 3 3 4 5 5 4 5 5 3 4 4 5 5 5 4 3 3 3 3 3 2 6 10 10
3 3 3 2 2 1 1 1 2 2 2 3 2 3 3 2 3 4 3 3 3 3 5 6 6 7 7 8 6 4 4 4 5 4 3 3 3 2 2 3 4 9 9
3 3 3 3 2 1 2 2 2 3 3 2 2 2 2 2 2 3 3 4 5 4 4 4 5 6 6 7 8 5 4 4 4 3 2 2 2 1 2 2 1 3 4
Wind_Direction
89 70 12 8 291 215 197 210 225 238 235 233 232 227 229 209 190 150 159 179 180 182 187 189 192 193 195 196 199 203 205 209 209 211 214 215 218 218 216 217 220 220 221
85 60 343 338 327 346 316 262 254 242 246 255 255 250 231 201 186 162 165 183 188 188 189 191 193 198 199 202 205 207 209 211 212 215 219 219 217 217 218 219 222 222 223
85 61 254 275 16 330 263 240 272 271 249 260 266 257 247 199 170 176 183 177 180 191 194 193 194 199 204 207 208 210 212 215 218 221 221 221 219 218 220 221 224 226 227
92 283 39 42 315 252 212 196 343 336 311 295 258 270 262 196 201 189 192 181 176 184 194 197 197 203 207 211 213 216 217 218 220 224 224 222 222 222 222 222 224 227 230
115 288 79 321 280 336 27 3 61 327 294 309 269 225 226 201 213 217 198 185 175 177 177 188 196 203 206 211 216 217 219 220 222 225 227 225 225 225 225 224 225 225 227
122 326 207 200 336 60 25 29 342 288 276 261 286 293 253 218 205 198 214 185 173 180 173 174 186 202 206 210 215 214 217 221 223 227 228 227 226 224 222 224 224 223 224
158 235 324 337 349 105 107 319 339 303 272 239 294 299 260 229 206 185 202 198 177 180 176 173 184 183 195 207 209 210 214 218 224 227 228 228 226 224 223 223 222 222 223
69 343 16 358 328 216 201 286 303 297 300 245 221 298 321 300 267 212 187 210 194 175 194 185 180 178 184 176 187 199 212 217 226 229 231 230 225 223 224 225 226 224 223
159 208 119 117 276 265 260 244 269 307 301 298 230 130 211 249 303 269 226 214 175 199 213 194 193 183 189 179 171 192 201 208 223 228 233 237 233 229 229 233 231 228 226
211 204 156 202 282 276 298 278 33 300 299 301 298 259 197 175 232 284 283 229 222 220 227 218 201 181 183 172 162 165 183 199 217 228 236 240 243 241 238 239 236 232 229
228 203 158 259 277 261 288 299 303 297 289 286 296 291 283 255 238 227 259 262 249 220 212 222 204 189 191 178 169 166 174 190 202 220 237 239 244 245 246 242 240 237 234
219 256 157 289 283 291 289 267 270 270 265 280 285 276 265 263 258 251 261 261 254 245 223 217 208 202 192 172 176 172 180 189 197 210 225 234 245 248 249 248 244 243 239
170 34 1 300 295 296 276 269 268 278 268 270 266 271 271 269 275 272 273 280 280 261 241 222 200 212 210 161 167 179 191 193 199 208 219 229 240 250 252 252 251 248 243
67 109 39 339 300 307 308 321 289 272 287 292 281 281 284 277 274 260 259 274 288 277 254 250 212 187 166 182 172 187 193 198 201 206 213 224 234 243 246 249 252 250 248
255 86 36 348 312 314 305 293 277 289 307 294 284 276 278 279 282 276 265 246 253 271 270 263 260 200 178 188 180 199 199 203 207 209 214 220 226 233 238 241 242 243 245
328 349 306 282 270 261 268 279 276 262 256 254 255 271 286 287 290 286 277 263 241 249 270 274 263 261 261 255 198 213 226 221 218 214 217 220 222 226 230 233 234 235 238
286 308 290 287 273 260 257 263 277 270 263 270 276 270 272 285 291 293 296 285 268 256 267 285 288 278 251 259 231 228 240 229 223 222 217 218 220 220 222 226 230 232 233
267 263 271 279 272 270 276 276 277 281 273 270 276 279 274 277 271 280 285 281 275 274 268 279 270 260 255 240 230 237 256 257 239 224 214 216 218 218 218 220 224 226 227
248 260 261 272 274 276 278 275 278 281 283 285 284 280 277 280 273 273 267 267 270 272 251 259 267 259 264 263 246 254 264 272 270 241 210 214 220 217 217 216 217 219 219
229 249 267 277 277 271 273 287 300 292 287 284 287 280 267 261 262 271 266 265 276 282 278 271 270 270 265 268 257 255 266 265 274 274 242 214 218 213 214 211 213 212 211
247 247 271 281 284 277 292 323 298 289 296 299 299 287 273 262 266 271 275 277 275 270 275 272 269 276 278 302 298 283 281 271 264 265 269 248 216 209 209 217 215 214 212
275 267 268 275 289 299 331 334 309 300 294 287 290 291 274 260 262 260 277 277 273 269 280 285 281 281 281 286 292 288 290 292 281 261 258 264 234 216 210 205 205 208 210
278 274 273 275 267 291 316 302 308 290 281 277 279 282 291 295 275 249 257 257 254 254 252 261 272 279 281 286 286 285 284 278 272 274 272 271 263 249 232 216 204 201 205
260 259 260 264 268 283 302 297 303 276 279 277 276 279 284 284 294 289 269 261 253 258 256 250 250 261 270 276 269 270 269 272 267 264 248 254 256 253 255 219 204 196 200
260 262 257 250 252 267 261 279 303 288 280 287 289 291 283 270 287 295 285 279 271 265 268 266 255 251 252 255 256 266 268 269 274 267 256 254 262 262 253 238 210 201 199
262 265 265 256 243 231 215 228 263 286 286 287 274 264 271 271 287 297 275 278 276 279 284 277 265 257 250 249 245 236 248 262 275 275 262 259 269 284 281 256 226 188 196